sat.trackr.live / text

‹ back to catalog

STARLINK-31865

NORAD 59791 · 2024-093K

PAYLOAD ACTIVE UNKNOWN

§ Identity

Operator
Country
US
Launch date
2024-05-18
Launch site
AFETR
Launch vehicle
Mass (kg)
RCS (m²)

Purposes: comms

External: N2YO · Heavens-Above · Gunter

§ Orbital elements

Epoch: 2026-09-21T02:39:32.229216Z

Period
94.27 min
Inclination
43.0038°
Eccentricity
0.0001227
Mean motion
15.27579242 rev/d
Perigee alt
482.2 km
Apogee alt
483.9 km
Semi-major
6,861.2 km
B*
2.6095e-5
RAAN
185.1684°
Arg perigee
270.6261°
Mean anomaly
89.4450°
Rev number
13,258

§ Raw data

STARLINK-318651 59791U 24093K   26264.11078969  .00000456  00000+0  26095-4 0  99902 59791  43.0038 185.1684 0001227 270.6261  89.4450 15.27579242132583

JSON: /api/v1/satellites/59791 · /tle

For live sub-satellite position, see the globe view (requires WebGL).

§ Visibility from observer

Set your observer location to see the next 7 days of passes ≥ 10°. The values pass through the URL so the page stays shareable.

No JS? Fill the form by hand. The geolocation button needs JavaScript.